RH
3 4 9 15 17 18 9 7 6 5 5 5 4 4 4 3 3 4 3 3 2 2 1 1 1 1 1 1 1 2 2 2 2 2 2 2 2 1 1 2 9 58 91 84 83 81 87 81 93
4 4 9 14 17 16 13 7 5 5 5 4 4 4 4 3 3 3 3 2 2 2 1 1 1 1 1 1 1 1 2 2 2 2 2 2 2 2 2 2 1 6 24 86 86 84 83 83 94
4 6 10 13 14 11 9 6 4 4 4 4 4 4 4 3 3 3 3 3 2 2 2 2 1 1 2 1 1 1 1 2 2 2 2 2 2 2 2 2 2 1 2 43 90 85 82 90 94
4 5 7 10 7 7 5 4 4 4 4 4 4 4 4 4 4 4 4 4 4 4 3 3 3 2 2 2 2 1 1 1 1 2 2 1 1 2 1 2 2 2 2 2 27 84 85 83 92
5 6 8 8 6 5 4 4 4 5 4 5 5 4 5 5 5 6 6 6 6 6 6 6 5 5 4 4 3 2 2 1 1 1 1 2 2 1 1 1 2 3 3 2 2 26 88 87 88
6 9 11 10 6 5 4 5 5 5 5 5 5 5 5 6 6 7 8 9 10 10 10 9 8 7 7 6 5 4 3 3 2 2 2 2 2 2 2 1 1 2 3 3 2 2 70 92 91
8 8 9 9 7 5 5 5 5 6 6 6 6 6 6 7 7 8 11 13 14 14 14 13 12 11 10 10 8 7 6 5 4 4 3 2 2 2 1 1 1 1 2 4 3 2 9 79 92
9 9 8 6 6 5 6 6 6 6 7 7 7 6 7 7 8 10 13 17 18 17 17 17 17 18 17 16 14 13 11 9 7 6 5 4 3 2 2 1 1 1 1 3 4 2 2 28 93
9 9 7 6 6 6 6 7 7 8 8 8 8 9 8 8 9 10 16 20 21 22 24 28 29 28 26 25 25 25 24 21 18 13 10 7 6 3 2 1 1 1 1 2 3 4 2 2 16
9 8 8 7 7 7 7 8 10 12 16 15 10 9 9 8 9 12 19 24 27 29 32 34 36 36 36 35 35 35 34 33 32 30 24 17 11 7 4 2 1 1 1 1 2 4 4 3 2
10 9 8 8 8 8 9 10 16 18 19 18 13 10 10 8 9 13 22 28 32 35 37 37 38 37 37 38 38 37 36 35 35 36 34 33 27 17 8 4 2 1 1 1 1 1 3 4 3
10 9 8 8 9 11 12 14 16 19 19 18 13 11 10 8 9 13 24 33 38 39 40 40 40 40 40 39 37 36 35 36 35 35 35 34 34 31 17 7 3 2 1 1 1 1 2 4 4
10 9 10 10 12 12 15 18 20 21 21 21 22 18 13 8 9 13 28 38 40 38 38 39 41 43 42 41 41 41 40 38 36 34 33 32 32 33 32 20 7 3 1 1 1 1 1 3 4
11 12 13 15 17 20 20 20 21 20 21 23 26 25 16 8 9 13 32 41 39 37 40 42 45 45 39 37 35 31 24 20 28 31 33 30 29 28 33 34 20 6 2 1 1 1 1 2 4
17 18 18 20 22 21 21 20 20 22 23 24 26 27 18 8 9 12 30 42 38 38 44 45 47 50 43 40 41 44 45 29 8 10 20 24 27 29 29 32 36 16 5 2 1 1 1 3 4
22 22 23 22 22 24 26 25 26 27 26 24 25 28 24 9 9 12 28 43 36 43 48 38 25 23 36 39 45 47 41 14 8 9 8 9 12 16 33 38 41 37 12 3 1 1 1 4 4
23 25 25 27 28 30 30 28 29 26 25 24 25 28 28 13 10 12 32 44 36 47 46 43 37 24 28 42 30 19 12 9 7 8 8 9 10 11 16 30 40 44 38 10 1 1 1 5 4
30 32 32 32 33 33 34 30 29 24 24 23 22 26 28 17 10 12 32 44 38 51 49 49 45 31 19 18 14 13 11 9 7 7 9 13 15 14 15 19 31 41 45 34 6 1 2 6 5
37 38 38 37 37 37 33 30 26 24 23 23 23 23 22 19 13 16 40 41 45 52 50 49 42 24 21 18 13 12 9 9 10 8 7 9 12 11 13 20 25 42 49 45 17 1 2 8 5
43 44 42 41 41 41 35 29 26 25 28 26 27 26 20 19 16 27 43 38 54 51 50 48 40 22 18 13 14 13 9 7 7 7 7 6 8 16 20 27 34 41 54 49 16 2 1 8 7
48 46 50 54 45 40 36 29 27 30 30 29 29 24 20 18 21 37 38 50 54 54 53 50 46 32 19 16 16 12 9 8 8 10 13 13 12 15 21 32 40 48 56 60 24 2 2 6 10
53 53 56 52 51 45 41 42 30 30 33 31 26 22 20 24 35 39 49 55 54 55 54 51 49 38 20 20 16 12 9 7 8 8 10 24 27 23 25 31 41 52 57 64 42 4 3 3 10
55 59 57 55 51 52 48 41 34 32 36 28 24 25 30 33 34 51 56 56 56 56 54 52 48 30 24 23 16 12 8 6 6 6 7 10 19 24 27 36 44 54 60 66 55 13 3 4 8
59 58 54 51 51 72 51 44 40 37 35 32 29 27 28 32 48 56 57 58 58 57 55 52 41 25 29 24 16 10 7 6 5 5 5 8 10 16 31 41 51 57 63 67 61 22 2 8 6
63 60 57 67 66 70 52 50 38 39 38 34 29 28 30 41 55 58 61 62 61 60 57 52 34 26 29 23 14 10 8 6 5 5 5 6 7 12 32 51 58 60 67 70 69 34 4 9 6
67 64 57 85 83 70 51 47 38 43 39 33 26 26 34 48 56 61 62 62 62 62 59 53 37 29 31 24 17 13 9 7 6 5 5 6 9 14 37 58 59 63 70 74 70 39 4 4 16
68 69 74 76 67 86 55 48 42 42 42 42 38 36 37 43 52 58 63 63 64 63 61 55 42 35 34 28 24 16 11 8 6 6 6 7 16 28 45 62 64 68 71 74 64 28 3 2 19
76 81 76 70 76 86 70 62 42 42 41 43 44 44 45 48 55 64 64 66 66 64 64 56 43 38 38 36 30 19 12 9 7 6 7 10 27 40 53 61 61 58 67 73 67 46 5 1 8
84 88 82 69 65 91 97 66 48 50 53 56 55 55 56 53 58 60 67 70 69 68 62 50 45 46 48 47 36 21 14 11 9 7 8 12 35 45 53 50 34 13 14 32 29 25 10 1 3
82 80 78 77 89 87 89 75 51 54 57 52 52 53 55 54 50 60 71 70 66 67 61 55 55 55 57 56 40 25 20 16 13 12 10 15 32 51 55 40 21 18 10 8 6 5 5 2 2
Wind_Speed
4 9 12 10 2 3 4 3 3 3 3 2 1 0 2 0 3 2 6 8 9 11 14 14 15 16 16 15 15 13 13 14 14 15 16 18 18 17 16 17 20 24 25 25 22 20 21 19 20
4 9 13 7 4 4 3 4 4 4 3 2 2 2 2 1 2 3 7 9 11 12 14 14 15 17 18 18 17 17 16 15 15 16 16 17 18 20 19 19 19 22 27 26 25 24 22 23 22
5 9 9 4 5 4 2 6 5 4 4 2 2 5 2 1 3 5 8 9 11 11 12 12 13 14 14 15 17 18 18 17 17 17 16 18 18 19 21 21 21 21 24 27 26 27 26 25 22
6 9 8 7 6 5 5 7 6 4 3 2 2 4 2 3 5 7 9 11 12 12 12 12 13 14 15 15 16 16 17 18 18 19 19 18 18 20 21 21 23 23 23 25 29 28 29 29 26
6 7 9 7 7 6 7 6 5 4 2 1 1 1 2 3 6 7 9 11 12 13 14 16 17 16 16 16 16 17 19 21 21 20 20 19 18 19 21 22 24 25 25 25 26 29 29 31 27
8 7 7 7 8 7 7 5 3 2 1 1 2 4 2 5 6 7 10 11 13 14 16 16 16 16 16 16 16 17 16 18 21 22 22 21 19 19 19 22 24 26 26 26 26 28 30 31 30
9 9 10 9 7 7 6 5 3 2 2 2 4 4 4 5 6 8 9 11 13 15 15 15 16 16 16 16 16 16 18 19 20 21 23 22 21 21 20 20 23 24 26 26 26 26 30 31 34
9 9 9 7 7 6 6 5 4 3 4 5 4 4 6 5 6 8 10 11 12 14 14 14 15 16 16 16 16 17 17 19 21 21 23 23 23 22 21 20 21 24 24 27 25 27 27 30 33
8 8 7 7 7 6 5 5 4 5 5 7 7 7 7 6 6 7 8 9 11 13 14 15 15 15 15 16 16 17 18 19 21 22 24 25 25 25 24 22 22 23 24 24 27 26 27 26 31
9 9 8 8 7 6 5 5 5 6 7 9 9 8 8 7 6 6 7 8 10 12 13 15 14 14 15 16 17 18 19 21 22 23 24 25 27 27 28 26 24 24 25 22 25 25 28 27 28
10 11 9 8 7 7 7 6 7 8 8 9 9 9 10 9 6 6 6 7 8 10 12 14 15 17 18 18 19 21 22 24 25 25 25 28 29 30 31 30 28 27 26 26 23 27 29 31 31
9 9 9 8 7 7 8 9 10 12 12 9 8 10 11 10 8 7 6 6 8 10 13 15 16 17 18 19 21 23 24 25 27 29 29 28 29 30 32 32 31 30 28 29 26 28 31 32 33
7 7 8 8 8 9 10 11 14 13 12 9 9 10 12 12 10 8 6 4 7 11 14 16 18 18 18 18 19 22 25 26 28 29 30 31 30 29 30 34 35 33 32 31 32 30 32 33 36
5 6 7 8 8 10 11 13 15 12 10 11 9 11 14 15 12 11 6 4 7 12 15 17 19 18 18 17 18 21 24 27 29 30 30 32 32 32 30 31 33 35 36 34 34 33 34 35 37
5 6 7 9 9 13 14 12 12 11 11 14 14 14 16 17 15 13 10 7 9 13 16 20 21 19 18 20 23 26 29 32 32 32 33 34 36 36 35 34 33 35 36 37 36 34 34 35 37
6 6 6 8 14 13 15 11 11 18 19 16 19 18 17 19 18 16 12 9 11 15 18 21 26 25 24 25 26 26 28 31 31 30 32 35 37 39 38 36 37 36 38 38 37 34 33 35 37
5 9 11 13 13 15 14 14 16 19 20 19 18 17 19 22 20 18 13 10 12 16 19 24 29 30 28 23 26 28 28 28 29 30 33 35 37 38 39 38 37 38 38 40 39 34 33 33 35
12 15 17 17 17 16 20 17 16 21 15 14 16 17 19 23 21 20 16 12 13 16 20 25 30 34 32 28 29 26 27 28 30 32 34 36 35 36 37 37 36 36 35 38 39 35 33 32 33
15 17 20 19 18 26 22 19 16 16 13 8 7 11 17 23 24 21 16 14 15 17 23 28 31 34 32 32 32 28 26 28 30 32 35 36 36 34 35 35 35 36 35 35 33 35 32 32 31
22 22 18 15 23 28 24 19 12 14 11 11 11 12 17 23 21 21 17 17 15 19 23 29 32 33 32 33 30 32 30 29 30 31 33 35 35 33 33 35 35 36 36 37 30 30 31 32 32
23 15 18 26 26 25 17 9 13 13 10 12 14 16 19 21 22 20 18 18 16 20 25 30 33 34 35 32 32 33 33 34 34 32 30 31 34 36 36 36 36 37 37 38 33 28 29 32 32
21 15 27 26 24 8 10 5 15 14 12 13 14 16 19 21 20 20 19 16 18 23 29 34 37 36 35 33 33 34 36 37 36 35 33 31 32 34 36 37 37 38 37 37 34 32 27 32 33
14 26 25 27 21 14 9 5 7 17 16 16 17 19 20 21 21 20 17 17 21 27 32 37 37 38 35 33 35 36 37 38 39 38 38 36 34 36 38 38 38 38 38 37 35 30 30 32 35
16 24 25 13 8 2 3 4 5 13 16 17 19 22 21 21 19 18 18 19 23 29 35 38 38 37 34 34 35 36 36 38 38 38 39 38 37 38 39 39 38 38 38 37 36 30 32 29 36
26 18 8 5 3 4 5 9 14 13 15 18 22 22 21 21 20 20 18 20 25 32 37 39 38 36 36 35 34 35 36 37 38 38 39 40 38 38 39 39 37 36 37 35 36 31 29 32 35
17 12 2 4 3 6 21 8 6 11 15 19 22 22 23 23 23 24 24 25 31 38 41 39 38 37 37 36 35 34 35 36 37 39 40 40 39 38 39 38 36 35 35 35 35 31 27 33 33
10 7 12 7 9 3 6 8 16 19 17 21 24 25 29 30 32 31 29 32 39 43 42 40 39 38 38 37 36 35 35 35 37 39 40 40 38 37 38 36 35 33 33 33 33 30 27 32 34
14 13 6 3 2 5 6 10 20 16 17 19 21 25 30 33 33 30 30 39 46 43 40 41 40 40 38 38 37 35 35 36 38 40 40 40 37 36 37 34 33 32 31 32 31 30 27 29 35
19 15 6 4 5 4 4 6 7 14 16 18 22 28 31 35 34 32 37 49 41 38 43 43 40 38 37 37 37 36 35 36 37 40 40 39 36 35 36 33 31 31 31 30 31 30 28 30 33
13 8 8 5 4 10 12 23 19 15 15 13 15 21 28 31 33 38 48 39 37 43 46 38 37 37 37 37 36 35 36 36 38 40 40 39 37 35 35 34 31 32 32 29 30 30 29 29 32
Wind_Direction
170 176 178 177 205 240 193 188 184 181 201 166 174 220 236 263 346 276 321 325 334 341 340 341 343 337 336 339 337 337 333 329 333 337 335 333 328 323 318 296 269 264 264 266 265 260 255 250 248
176 179 176 201 245 233 224 209 201 194 196 172 168 156 164 268 7 321 332 345 343 343 335 338 329 336 339 338 336 335 332 327 326 329 332 331 332 328 323 315 302 268 266 262 263 262 260 255 256
190 185 189 237 250 248 225 202 200 190 182 154 124 162 90 334 6 352 352 351 345 337 337 328 329 328 332 334 332 329 329 327 326 325 324 325 325 323 321 315 308 303 271 261 262 260 259 260 256
201 199 229 249 259 236 212 194 190 188 174 158 97 150 334 18 3 357 356 350 343 337 334 334 335 336 338 336 331 329 325 320 318 316 314 316 318 317 317 308 304 297 296 272 260 259 257 256 255
216 229 243 259 242 225 201 195 186 193 191 183 48 303 326 6 354 356 356 344 337 336 335 341 338 340 341 340 334 333 331 326 321 317 314 313 315 316 315 311 300 294 288 288 268 258 253 253 256
235 244 254 254 241 216 203 199 205 215 224 312 302 299 313 337 347 356 352 342 337 337 340 343 340 340 340 339 334 330 325 320 319 317 313 313 315 315 316 314 304 290 286 284 283 260 250 251 252
242 254 265 266 243 225 212 215 234 259 280 284 276 294 305 324 338 348 347 342 339 344 345 344 346 342 339 335 333 328 325 322 317 315 314 312 313 312 314 316 309 295 282 276 276 273 253 249 246
251 252 264 257 238 235 223 230 250 282 289 283 286 272 296 308 325 333 347 342 344 347 351 350 352 347 339 334 332 329 326 322 320 317 314 312 310 309 311 312 313 304 288 269 271 267 264 251 245
252 250 263 257 241 241 229 243 269 281 290 287 278 281 284 285 302 329 337 341 352 356 354 353 353 345 337 335 333 331 329 325 320 316 314 311 311 311 309 308 308 309 295 275 263 264 262 255 250
251 256 261 248 238 244 246 256 275 286 294 286 270 269 271 268 288 313 334 343 1 358 350 349 349 343 340 336 335 332 329 326 323 319 316 314 312 310 307 305 303 306 306 287 263 260 256 259 256
257 255 256 243 243 253 259 264 282 289 297 296 270 265 262 256 276 295 315 344 0 357 357 354 347 345 340 339 337 335 333 332 328 324 322 320 316 312 307 305 302 302 304 298 278 260 260 253 259
253 250 243 245 249 259 268 273 285 295 291 283 259 253 257 251 255 273 302 337 3 6 4 352 348 345 341 341 337 333 333 332 329 327 326 322 318 312 306 303 301 300 299 299 288 269 262 257 253
248 243 245 251 260 272 281 285 284 285 281 266 257 254 250 242 246 260 286 329 0 358 353 346 339 335 333 332 333 332 329 326 323 322 320 319 318 316 312 305 301 300 297 295 291 279 264 263 259
257 252 257 267 271 292 293 290 288 282 265 256 253 259 247 235 239 250 264 294 340 347 347 349 344 337 332 332 340 340 333 325 318 314 312 310 311 310 309 304 299 298 298 296 292 284 267 263 264
289 280 272 283 284 299 299 293 283 266 267 258 261 264 240 229 235 245 257 286 329 338 349 354 347 336 329 329 325 324 323 324 318 310 308 308 308 308 308 305 299 296 296 297 291 285 265 258 262
296 288 286 289 298 299 307 294 293 277 275 260 270 262 231 226 231 241 253 274 316 334 346 346 340 332 323 324 323 321 320 319 317 316 312 307 306 305 307 306 303 298 296 296 293 284 262 256 260
317 317 308 312 301 305 302 295 278 272 274 271 256 242 224 222 225 234 247 269 306 326 336 341 342 342 339 334 330 325 325 323 320 318 314 312 309 306 305 305 303 302 299 299 296 285 261 255 260
334 330 318 314 302 304 302 299 268 270 263 263 244 229 222 215 219 230 244 267 299 320 330 340 342 337 331 327 331 330 328 325 322 318 315 313 312 310 308 305 302 300 299 297 298 288 261 254 258
337 326 315 314 310 313 311 302 272 250 233 241 212 218 219 209 220 226 240 266 293 309 327 335 337 332 327 327 328 327 325 321 321 317 315 312 310 310 308 306 302 296 292 291 294 290 261 254 256
332 319 311 314 314 312 311 303 254 219 220 221 221 218 213 213 218 224 241 263 286 315 327 333 332 330 327 325 324 324 325 323 318 313 309 305 307 306 306 305 301 295 290 290 288 287 266 250 253
334 319 319 314 314 311 308 281 211 210 222 226 217 203 200 208 212 228 247 267 295 315 326 330 328 326 326 324 323 324 325 323 321 317 311 307 307 308 308 305 302 297 290 288 290 279 270 245 247
335 327 324 315 314 307 302 284 218 220 230 219 203 197 196 203 218 235 251 272 299 317 326 326 324 322 324 323 323 322 322 321 318 317 315 310 306 307 308 305 302 297 290 287 289 281 264 246 239
324 326 318 306 303 301 285 258 238 218 218 210 199 198 202 216 230 242 259 282 305 315 321 323 321 321 322 321 321 320 322 319 317 318 317 314 312 310 308 305 302 296 290 287 287 282 265 247 235
329 331 318 308 305 300 289 271 243 216 225 221 218 215 220 227 239 248 266 288 305 315 321 322 318 319 319 320 319 319 319 316 316 319 317 316 314 310 307 305 301 295 289 287 286 283 273 243 235
334 346 328 339 343 235 324 297 264 250 242 232 234 228 235 238 244 259 279 298 312 319 321 316 315 317 316 317 319 320 320 317 320 320 319 316 314 310 307 305 300 294 287 284 283 282 275 253 232
327 349 356 263 288 296 296 256 254 256 241 234 234 235 245 248 254 261 275 298 309 317 318 312 316 315 313 316 319 320 318 319 321 320 318 316 315 311 308 306 301 294 286 280 279 279 272 259 237
322 329 304 260 282 316 256 273 274 262 252 245 242 250 256 258 261 267 280 300 309 315 313 313 315 314 314 316 318 321 320 322 321 319 317 316 315 313 309 307 301 296 287 279 277 277 271 259 242
306 309 294 249 343 298 266 267 254 275 276 262 259 261 264 264 266 275 296 308 309 310 312 314 314 312 312 313 318 322 322 323 321 319 319 317 318 315 311 307 302 297 290 283 279 274 271 259 243
296 297 234 262 268 200 298 246 289 297 289 286 286 284 281 272 271 282 300 309 306 310 317 313 308 306 308 313 318 321 322 322 322 320 318 317 319 317 312 307 303 297 291 286 282 275 271 263 242
288 260 229 283 262 246 269 281 291 291 289 283 290 299 289 281 284 285 298 301 304 308 312 306 304 306 309 312 316 319 321 323 323 320 319 318 318 316 311 306 303 298 294 289 284 277 271 265 249